Time,TemperatureF,DewpointF,PressureIn,WindDirection,WindDirectionDegrees,WindSpeedMPH,WindSpeedGustMPH,Humidity,HourlyPrecipIn,Conditions,Clouds,dailyrainin,SoftwareType,DateUTC
2013-01-16 00:13:00,35.3,33.0,30.16,North,5,0.0,2.0,90,0.04,,,0.00,weatherlink.com 1.10,2013-01-16 05:13:00,
2013-01-16 00:28:00,35.1,33.0,30.16,ENE,57,0.0,2.0,90,0.05,,,0.02,weatherlink.com 1.10,2013-01-16 05:28:00,
2013-01-16 00:43:00,34.8,32.0,30.16,NNE,32,0.0,1.0,90,0.06,,,0.04,weatherlink.com 1.10,2013-01-16 05:43:00,
2013-01-16 00:58:00,34.6,32.0,30.15,North,355,0.0,3.0,91,0.07,,,0.06,weatherlink.com 1.10,2013-01-16 05:58:00,
2013-01-16 01:13:00,34.3,32.0,30.13,East,96,2.0,4.0,91,0.08,,,0.08,weatherlink.com 1.10,2013-01-16 06:13:00,
2013-01-16 01:28:00,34.0,32.0,30.13,East,82,1.0,4.0,92,0.07,,,0.09,weatherlink.com 1.10,2013-01-16 06:28:00,
2013-01-16 01:44:00,33.8,32.0,30.12,NE,40,2.0,3.0,92,0.06,,,0.10,weatherlink.com 1.10,2013-01-16 06:44:00,
2013-01-16 01:59:00,33.7,32.0,30.12,NE,53,0.0,5.0,92,0.05,,,0.11,weatherlink.com 1.10,2013-01-16 06:59:00,
2013-01-16 02:14:00,33.5,32.0,30.12,ENE,74,4.0,5.0,92,0.04,,,0.12,weatherlink.com 1.10,2013-01-16 07:14:00,
2013-01-16 02:29:00,33.4,32.0,30.11,ENE,71,1.0,4.0,93,0.04,,,0.13,weatherlink.com 1.10,2013-01-16 07:29:00,
2013-01-16 02:44:00,33.2,31.0,30.11,ENE,73,0.0,4.0,93,0.05,,,0.15,weatherlink.com 1.10,2013-01-16 07:44:00,
2013-01-16 02:59:00,33.1,32.0,30.09,East,94,0.0,4.0,94,0.07,,,0.18,weatherlink.com 1.10,2013-01-16 07:59:00,
2013-01-16 03:14:00,32.9,31.0,30.07,East,81,1.0,5.0,94,0.08,,,0.20,weatherlink.com 1.10,2013-01-16 08:14:00,
2013-01-16 03:29:00,32.9,31.0,30.07,ENE,64,2.0,4.0,94,0.09,,,0.22,weatherlink.com 1.10,2013-01-16 08:29:00,
2013-01-16 03:44:00,32.9,31.0,30.07,NNE,17,0.0,5.0,94,0.11,,,0.26,weatherlink.com 1.10,2013-01-16 08:44:00,
2013-01-16 03:59:00,32.8,32.0,30.06,ENE,75,2.0,5.0,95,0.11,,,0.29,weatherlink.com 1.10,2013-01-16 08:59:00,
2013-01-16 04:14:00,32.8,32.0,30.06,ENE,61,1.0,3.0,95,0.11,,,0.31,weatherlink.com 1.10,2013-01-16 09:14:00,
2013-01-16 04:29:00,32.7,32.0,30.06,NE,43,0.0,5.0,95,0.10,,,0.32,weatherlink.com 1.10,2013-01-16 09:29:00,
2013-01-16 04:44:00,32.7,32.0,30.07,NE,55,1.0,5.0,95,0.07,,,0.33,weatherlink.com 1.10,2013-01-16 09:44:00,
2013-01-16 04:59:00,32.7,32.0,30.05,NE,54,1.0,2.0,95,0.05,,,0.34,weatherlink.com 1.10,2013-01-16 09:59:00,
2013-01-16 05:14:00,32.7,32.0,30.04,ENE,61,0.0,3.0,95,0.04,,,0.35,weatherlink.com 1.10,2013-01-16 10:14:00,
2013-01-16 05:29:00,32.7,32.0,30.04,ENE,61,0.0,3.0,95,0.03,,,0.35,weatherlink.com 1.10,2013-01-16 10:29:00,
2013-01-16 05:44:00,32.7,32.0,30.03,ENE,74,0.0,3.0,95,0.03,,,0.36,weatherlink.com 1.10,2013-01-16 10:44:00,
2013-01-16 05:59:00,32.8,32.0,30.02,NE,35,0.0,3.0,95,0.04,,,0.38,weatherlink.com 1.10,2013-01-16 10:59:00,
2013-01-16 06:14:00,32.8,32.0,30.02,NE,56,0.0,2.0,96,0.04,,,0.39,weatherlink.com 1.10,2013-01-16 11:14:00,
2013-01-16 06:29:00,32.8,32.0,30.00,North,5,0.0,1.0,96,0.04,,,0.40,weatherlink.com 1.10,2013-01-16 11:29:00,
2013-01-16 06:44:00,32.8,32.0,30.00,NNE,26,1.0,3.0,96,0.05,,,0.41,weatherlink.com 1.10,2013-01-16 11:44:00,
2013-01-16 06:59:00,32.8,32.0,30.01,North,5,2.0,2.0,96,0.03,,,0.41,weatherlink.com 1.10,2013-01-16 11:59:00,
2013-01-16 07:14:00,32.9,32.0,30.01,North,5,2.0,2.0,96,0.03,,,0.42,weatherlink.com 1.10,2013-01-16 12:14:00,
2013-01-16 07:29:00,32.9,32.0,30.01,North,5,0.0,2.0,96,0.02,,,0.42,weatherlink.com 1.10,2013-01-16 12:29:00,
2013-01-16 07:44:00,33.0,32.0,30.00,NE,55,0.0,2.0,96,0.02,,,0.43,weatherlink.com 1.10,2013-01-16 12:44:00,
2013-01-16 07:59:00,33.0,32.0,29.98,ENE,57,1.0,2.0,96,0.03,,,0.44,weatherlink.com 1.10,2013-01-16 12:59:00,
2013-01-16 08:14:00,33.1,32.0,29.98,NE,53,0.0,3.0,96,0.02,,,0.44,weatherlink.com 1.10,2013-01-16 13:14:00,
2013-01-16 08:29:00,33.1,32.0,29.98,NNE,21,0.0,2.0,96,0.02,,,0.44,weatherlink.com 1.10,2013-01-16 13:29:00,
2013-01-16 08:44:00,33.2,32.0,29.96,NE,51,0.0,2.0,96,0.02,,,0.45,weatherlink.com 1.10,2013-01-16 13:44:00,
2013-01-16 08:59:00,33.3,32.0,29.93,East,99,0.0,3.0,96,0.01,,,0.45,weatherlink.com 1.10,2013-01-16 13:59:00,
2013-01-16 09:14:00,33.4,32.0,29.91,East,88,0.0,2.0,96,0.01,,,0.45,weatherlink.com 1.10,2013-01-16 14:14:00,
2013-01-16 09:29:00,33.5,33.0,29.93,North,360,0.0,2.0,96,0.01,,,0.45,weatherlink.com 1.10,2013-01-16 14:29:00,
2013-01-16 09:44:00,33.5,33.0,29.93,WNW,293,0.0,2.0,96,0.01,,,0.46,weatherlink.com 1.10,2013-01-16 14:44:00,
2013-01-16 09:59:00,33.5,33.0,29.93,WNW,293,0.0,2.0,96,0.01,,,0.46,weatherlink.com 1.10,2013-01-16 14:59:00,
2013-01-16 10:14:00,33.6,33.0,29.95,WNW,293,0.0,2.0,97,0.01,,,0.46,weatherlink.com 1.10,2013-01-16 15:14:00,
2013-01-16 10:29:00,33.7,33.0,29.94,WNW,293,1.0,2.0,96,0.01,,,0.46,weatherlink.com 1.10,2013-01-16 15:29:00,
2013-01-16 10:44:00,33.7,33.0,29.94,WNW,293,1.0,2.0,96,0.01,,,0.47,weatherlink.com 1.10,2013-01-16 15:44:00,
2013-01-16 10:59:00,33.8,33.0,29.93,WNW,301,0.0,3.0,96,0.02,,,0.48,weatherlink.com 1.10,2013-01-16 15:59:00,
2013-01-16 11:14:00,33.8,33.0,29.91,NW,306,1.0,3.0,96,0.02,,,0.48,weatherlink.com 1.10,2013-01-16 16:14:00,
2013-01-16 11:29:00,33.8,33.0,29.90,NW,307,0.0,3.0,96,0.03,,,0.49,weatherlink.com 1.10,2013-01-16 16:29:00,
2013-01-16 11:44:00,33.9,33.0,29.91,North,350,1.0,3.0,96,0.02,,,0.49,weatherlink.com 1.10,2013-01-16 16:44:00,
2013-01-16 11:59:00,33.8,33.0,29.89,NNW,348,1.0,3.0,96,0.02,,,0.50,weatherlink.com 1.10,2013-01-16 16:59:00,
2013-01-16 12:14:00,33.7,33.0,29.87,NNW,333,0.0,3.0,96,0.02,,,0.50,weatherlink.com 1.10,2013-01-16 17:14:00,
2013-01-16 12:30:00,33.7,33.0,29.85,NNW,333,0.0,2.0,96,0.01,,,0.50,weatherlink.com 1.10,2013-01-16 17:30:00,
2013-01-16 12:45:00,34.0,33.0,29.85,NNW,329,0.0,2.0,96,0.01,,,0.50,weatherlink.com 1.10,2013-01-16 17:45:00,
2013-01-16 13:00:00,33.9,33.0,29.79,SSE,162,0.0,3.0,96,0.01,,,0.51,weatherlink.com 1.10,2013-01-16 18:00:00,
2013-01-16 13:15:00,34.0,33.0,29.78,NNW,338,0.0,4.0,96,0.01,,,0.51,weatherlink.com 1.10,2013-01-16 18:15:00,
2013-01-16 13:30:00,34.2,33.0,29.81,NNW,344,2.0,3.0,96,0.01,,,0.51,weatherlink.com 1.10,2013-01-16 18:30:00,
2013-01-16 13:45:00,34.2,33.0,29.79,North,355,2.0,4.0,96,0.01,,,0.51,weatherlink.com 1.10,2013-01-16 18:45:00,
2013-01-16 14:00:00,34.1,33.0,29.85,West,278,1.0,6.0,96,0.00,,,0.51,weatherlink.com 1.10,2013-01-16 19:00:00,
2013-01-16 14:15:00,34.2,33.0,29.86,NNW,327,2.0,6.0,96,0.00,,,0.51,weatherlink.com 1.10,2013-01-16 19:15:00,
2013-01-16 14:30:00,34.2,33.0,29.88,NNW,337,0.0,3.0,96,0.00,,,0.51,weatherlink.com 1.10,2013-01-16 19:30:00,
2013-01-16 14:45:00,34.2,33.0,29.83,NNW,342,0.0,1.0,96,0.00,,,0.51,weatherlink.com 1.10,2013-01-16 19:45:00,
2013-01-16 15:00:00,34.4,34.0,29.82,WNW,285,0.0,2.0,97,0.00,,,0.51,weatherlink.com 1.10,2013-01-16 20:00:00,
2013-01-16 15:15:00,34.6,34.0,29.84,WNW,284,1.0,5.0,97,0.01,,,0.52,weatherlink.com 1.10,2013-01-16 20:15:00,
2013-01-16 15:30:00,34.7,34.0,29.83,WNW,283,0.0,2.0,97,0.01,,,0.52,weatherlink.com 1.10,2013-01-16 20:30:00,
2013-01-16 15:45:00,34.9,34.0,29.87,WNW,283,1.0,2.0,97,0.01,,,0.52,weatherlink.com 1.10,2013-01-16 20:45:00,
2013-01-16 16:00:00,34.9,34.0,29.85,WNW,283,0.0,0.0,97,0.01,,,0.52,weatherlink.com 1.10,2013-01-16 21:00:00,
2013-01-16 16:15:00,35.0,34.0,29.86,WNW,283,0.0,3.0,96,0.00,,,0.52,weatherlink.com 1.10,2013-01-16 21:15:00,
2013-01-16 16:30:00,35.1,34.0,29.87,WNW,283,0.0,4.0,96,0.00,,,0.52,weatherlink.com 1.10,2013-01-16 21:30:00,
2013-01-16 16:45:00,35.1,34.0,29.86,WNW,283,0.0,3.0,96,0.00,,,0.52,weatherlink.com 1.10,2013-01-16 21:45:00,
2013-01-16 17:00:00,35.1,34.0,29.87,West,266,2.0,4.0,96,0.00,,,0.52,weatherlink.com 1.10,2013-01-16 22:00:00,
2013-01-16 17:15:00,35.1,34.0,29.87,West,262,0.0,4.0,96,0.00,,,0.52,weatherlink.com 1.10,2013-01-16 22:15:00,
2013-01-16 17:30:00,35.1,34.0,29.87,WSW,258,2.0,3.0,96,0.00,,,0.52,weatherlink.com 1.10,2013-01-16 22:30:00,
2013-01-16 18:00:00,35.2,34.0,29.87,WSW,255,1.0,3.0,96,0.00,,,0.52,weatherlink.com 1.10,2013-01-16 23:00:00,
2013-01-16 18:15:00,35.2,34.0,29.86,SW,227,0.0,6.0,96,0.00,,,0.52,weatherlink.com 1.10,2013-01-16 23:15:00,
2013-01-16 18:30:00,35.1,34.0,29.86,SSW,199,0.0,5.0,96,0.00,,,0.52,weatherlink.com 1.10,2013-01-16 23:30:00,
2013-01-16 18:45:00,35.1,34.0,29.85,WNW,300,1.0,4.0,96,0.01,,,0.53,weatherlink.com 1.10,2013-01-16 23:45:00,
2013-01-16 19:00:00,35.2,34.0,29.87,WSW,244,0.0,5.0,96,0.01,,,0.53,weatherlink.com 1.10,2013-01-17 00:00:00,
2013-01-16 19:15:00,35.3,34.0,29.87,WNW,285,1.0,5.0,96,0.01,,,0.53,weatherlink.com 1.10,2013-01-17 00:15:00,
2013-01-16 19:30:00,35.4,34.0,29.87,West,277,2.0,5.0,96,0.01,,,0.53,weatherlink.com 1.10,2013-01-17 00:30:00,
2013-01-16 19:45:00,35.5,34.0,29.87,West,259,1.0,3.0,95,0.00,,,0.53,weatherlink.com 1.10,2013-01-17 00:45:00,
2013-01-16 20:00:00,35.5,34.0,29.87,WNW,294,3.0,5.0,95,0.00,,,0.53,weatherlink.com 1.10,2013-01-17 01:00:00,
2013-01-16 20:15:00,35.6,34.0,29.88,WSW,245,0.0,6.0,95,0.00,,,0.53,weatherlink.com 1.10,2013-01-17 01:15:00,
2013-01-16 20:30:00,35.7,34.0,29.88,WSW,257,2.0,5.0,95,0.00,,,0.53,weatherlink.com 1.10,2013-01-17 01:30:00,
2013-01-16 20:45:00,35.9,35.0,29.88,WSW,257,1.0,7.0,95,0.00,,,0.53,weatherlink.com 1.10,2013-01-17 01:45:00,
2013-01-16 21:00:00,36.0,35.0,29.87,West,269,1.0,7.0,95,0.00,,,0.53,weatherlink.com 1.10,2013-01-17 02:00:00,
2013-01-16 21:15:00,36.0,35.0,29.88,West,276,3.0,5.0,95,0.00,,,0.53,weatherlink.com 1.10,2013-01-17 02:15:00,
2013-01-16 21:30:00,36.0,35.0,29.88,West,273,1.0,9.0,95,0.00,,,0.53,weatherlink.com 1.10,2013-01-17 02:30:00,
2013-01-16 21:45:00,35.9,35.0,29.87,West,280,0.0,10.0,95,0.00,,,0.53,weatherlink.com 1.10,2013-01-17 02:45:00,
2013-01-16 22:00:00,35.9,35.0,29.86,West,259,2.0,5.0,95,0.01,,,0.54,weatherlink.com 1.10,2013-01-17 03:00:00,
2013-01-16 22:15:00,35.9,35.0,29.86,WSW,245,1.0,5.0,95,0.01,,,0.54,weatherlink.com 1.10,2013-01-17 03:15:00,
2013-01-16 22:30:00,35.9,35.0,29.87,WSW,239,2.0,6.0,95,0.01,,,0.54,weatherlink.com 1.10,2013-01-17 03:30:00,
2013-01-16 22:45:00,36.0,35.0,29.88,WSW,240,1.0,6.0,94,0.01,,,0.54,weatherlink.com 1.10,2013-01-17 03:45:00,
2013-01-16 23:00:00,36.0,35.0,29.88,SW,227,1.0,6.0,94,0.00,,,0.54,weatherlink.com 1.10,2013-01-17 04:00:00,
2013-01-16 23:15:00,36.1,35.0,29.88,West,271,0.0,7.0,94,0.00,,,0.54,weatherlink.com 1.10,2013-01-17 04:15:00,
2013-01-16 23:30:00,36.2,35.0,29.88,WSW,255,3.0,8.0,94,0.00,,,0.54,weatherlink.com 1.10,2013-01-17 04:30:00,
2013-01-16 23:45:00,36.2,35.0,29.88,SW,232,1.0,6.0,94,0.00,,,0.54,weatherlink.com 1.10,2013-01-17 04:45:00,